STARLINK-1175 (45097 NORAD) Tracking and Keplerian Element Data

This shows tracking and keplerian element data for the satellite.

Feedback or suggestion? Click here.




ElementValue
Catalog45097
NameSTARLINK-1175
Epoch Orbit162
Epoch Day93.91667824
Epoch Year2020
RAAN277.0742
Inclination53.0003
Eccentricity0.0007593
Argument of Perigee328.183
Mean Anonmoly312.3561
Mean Motion15.62702611
Decay Rate0.000714
L11 45097U 20006BF 20093.91667824 .00071400 00000-0 77935-3 0 9996
L22 45097 53.0003 277.0742 0007593 328.1830 312.3561 15.62702611 1627

Live tracking and technical data element details for STARLINK-1175 (NORAD 45097). STARLINK-1175 can be tracked NOW for your location showing map with azimuth and elevation plus other details from your city location.

Track the satellite on the map from your city or location and see movement details for azimuth, elevation, latitude, longitude, range, height, and movement on the map or in text.







IsCatalogInMostPopularTable: catalog: 45097, numindb: 11
Update: records affected: 1



GetName: 45097 STARLINK-1175

Hit Count: updated at: Fri, 03 Apr 2020 23:09:30 GMT